#timestamp,LO_Frequency,Hit,StdDev 
1715295615.6,286046998.2,N
1715295635.5,286046998.3,N
1715295655.3,286047000.3,N
1715295675.1,286047000.9,N
1715295695.9,286047002.8,N
1715295715.7,286047002.0,N
1715295735.6,286047002.2,N
1715295755.4,286047000.2,N
1715295775.2,286047001.9,N
1715295795.1,286047002.1,N
1715295796.0,286047002.1,N
1715295815.8,286047001.4,N
1715295835.7,286047003.9,N
1715295855.5,286047001.7,N
1715295875.3,286047003.9,N
1715295895.2,286046999.7,N
1715295915.0,286047000.0,N
1715295915.9,286047000.0,N
1715295935.7,286047002.6,N
1715295955.6,286046999.9,N
1715295975.4,286047000.9,N
1715295995.3,286047000.4,N
1715296015.1,286046998.7,N
1715296016.0,286046998.7,N
1715296035.8,286047000.9,N
1715296055.7,286047000.4,N
1715296075.5,286047000.0,N
1715296095.4,286046999.8,N
1715296115.2,286047000.0,N
1715296135.0,286047000.6,N
1715296135.9,286047000.6,N
1715296155.8,286047000.2,N
1715296175.6,286047002.4,N
1715296195.4,286047000.2,N
1715296215.3,286047000.6,N
1715296235.1,286046998.2,N
1715296255.9,286047001.1,N
1715296275.7,286046998.1,N
1715296295.5,286047001.0,N
1715296315.4,286047001.1,N
1715296335.2,286047000.7,N
1715296355.0,286047001.0,N
1715296355.9,286047001.0,N
1715296375.8,286047000.6,N
1715296395.6,286047001.0,N
1715296415.5,286046998.2,N
1715296435.3,286047000.9,N
1715296455.2,286046998.1,N
1715296475.9,286046998.9,N
1715296495.7,286046998.9,N
1715296515.6,286046996.6,Y
1715296535.4,286046999.1,P
1715296555.2,286046997.7,P
1715296575.1,286046996.9,P
1715296576.0,286046996.9,N
1715296595.8,286046996.6,N
1715296615.7,286046999.3,N
1715296635.5,286046998.5,N
1715296655.3,286046999.1,N
1715296675.2,286046998.3,N
1715296695.0,286047001.1,N
1715296695.9,286047001.1,N
1715296715.8,286047000.8,N
1715296735.6,286047001.0,N
1715296755.4,286047000.4,N
1715296775.3,286047000.9,N
1715296795.1,286047001.2,N
1715296815.8,286046998.1,N
1715296835.7,286047000.4,N
1715296855.5,286047000.8,N
1715296875.4,286047000.4,N
1715296895.2,286047000.5,N
1715296915.0,286047000.2,N
1715296915.9,286047000.2,N
1715296935.8,286046999.9,N
1715296955.6,286047002.8,N
1715296975.5,286047002.3,N
1715296995.3,286047002.4,N
1715297015.1,286047001.2,N
1715297035.9,286047000.4,N
1715297055.7,286047000.1,N
1715297075.5,286047000.3,N
1715297095.4,286047000.0,N
1715297115.2,286047000.2,N
1715297135.1,286047000.2,N
1715297136.0,286047000.2,N
1715297155.8,286047001.0,N
1715297175.6,286047000.9,N
1715297195.5,286047000.9,N
1715297215.3,286047000.2,N
1715297235.2,286047002.5,N
1715297255.9,286047002.3,N
1715297275.7,286046999.9,N
1715297295.6,286047001.0,N
1715297315.4,286046998.7,N
1715297335.2,286046999.3,N
1715297355.1,286046998.7,N
1715297356.0,286046998.7,N
1715297375.8,286047001.2,N
1715297395.7,286046998.2,N
1715297415.5,286046999.6,N
1715297435.3,286046999.2,N
1715297455.2,286046999.6,N
1715297475.0,286046999.2,N
1715297475.9,286046999.2,N
1715297495.8,286046998.9,N
1715297515.6,286046998.6,N
1715297535.4,286047000.3,N
1715297555.3,286047000.0,N
1715297575.1,286047000.0,N
1715297595.8,286047002.3,N
1715297615.7,286047002.2,N
1715297635.5,286047002.6,N
1715297655.4,286047002.4,N
1715297675.2,286047002.8,N
1715297695.0,286047002.1,N
1715297695.9,286047002.1,N
1715297715.8,286046999.8,N
1715297735.6,286046999.7,N
1715297755.5,286047004.4,Y
1715297775.3,286047001.7,P
1715297795.1,286047001.8,N
1715297815.9,286047004.2,P
1715297835.7,286047001.7,N
1715297855.5,286047002.6,N
1715297875.4,286047001.6,N
1715297895.2,286047002.7,N
1715297915.1,286047000.0,N
1715297916.0,286047000.0,N
1715297935.8,286047000.3,N
1715297955.6,286047002.8,N
1715297975.5,286047002.8,N
1715297995.3,286047002.5,N
1715298015.2,286047004.2,Y
1715298035.9,286047002.4,P
1715298055.7,286047000.4,N
1715298075.6,286046998.2,N
1715298095.4,286046998.6,N
1715298115.2,286046999.3,N
1715298135.1,286046998.2,N
1715298136.0,286046998.2,N
1715298155.8,286046998.4,N
1715298175.7,286047001.2,N
1715298195.5,286047000.5,N
1715298215.4,286047000.9,N
1715298235.2,286047000.2,N
1715298255.0,286047000.8,N
1715298255.9,286047000.8,N
1715298275.8,286046998.4,N
1715298295.6,286047001.0,N
1715298315.4,286046998.1,N
1715298335.3,286047001.2,N
1715298355.1,286047000.8,N
1715298375.9,286047000.6,N
1715298395.7,286046998.7,N
1715298415.5,286046998.3,N
1715298435.4,286046999.0,N
1715298455.2,286046996.5,N
1715298475.1,286046999.2,N
1715298476.0,286046999.2,N
1715298495.8,286046999.4,N
1715298515.6,286046997.3,N
1715298535.5,286046999.6,N
1715298555.3,286046999.3,N
1715298575.1,286046998.2,N
1715298595.9,286047001.2,N
1715298615.7,286047001.0,N
1715298635.6,286047000.7,N
1715298655.4,286047001.1,N
1715298675.2,286047000.7,N
1715298695.1,286046998.7,N
1715298696.0,286046998.7,N
1715298715.8,286046999.6,N
1715298735.7,286046999.3,N
1715298755.5,286046997.3,N
1715298775.3,286046996.2,N
1715298795.2,286046994.2,Y
1715298815.0,286046993.6,P
1715298815.9,286046993.6,N
1715298835.8,286046993.8,N
1715298855.6,286046993.9,N
1715298875.4,286046994.3,N
1715298895.3,286046993.0,Y
1715298915.1,286046996.7,P
1715298935.8,286046997.1,P
1715298955.7,286046995.7,P
1715298975.5,286046996.0,Y
1715298995.4,286046998.5,P
1715299015.2,286047000.8,N
1715299035.0,286046996.5,N
1715299035.9,286046996.5,N
1715299055.8,286046997.1,N
1715299075.6,286046999.1,N
1715299095.5,286046996.9,N
1715299115.3,286046999.4,N
1715299135.1,286046997.3,N
1715299155.9,286046997.1,N
1715299175.7,286046999.5,N
1715299195.5,286046996.5,N
